GW2280 Weather Reports


Display with metric or nautical units.
time (UTC)temp
F
wind
direction
speed
MPH
gust
MPH
rain 1hr
in
rain 24hr
in
rain mn
in
humidity
%
barometer
mb
20260906085517 55 0 1.0 4.0 0.00 0.07 0.02 93 1016.4
20260906085017 55 360 1.0 4.0 0.00 0.07 0.02 93 1016.4
20260906084539 55 351 1.0 4.0 0.00 0.07 0.02 93 1016.4
20260906084017 55 0 1.0 3.0 0.00 0.07 0.02 93 1016.4
20260906083519 55 9 1.0 3.0 0.00 0.07 0.02 93 1016.4
20260906083037 55 14 1.0 3.0 0.00 0.07 0.02 93 1016.4
20260906082518 55 0 0.0 3.0 0.01 0.07 0.02 93 1016.5
20260906082021 55 38 0.0 2.0 0.02 0.07 0.02 92 1016.4
20260906081549 55 0 0.0 2.0 0.02 0.07 0.02 92 1016.4
20260906081019 55 0 0.0 3.0 0.02 0.07 0.02 92 1016.3
20260906080517 55 0 0.0 3.0 0.02 0.07 0.02 92 1016.3
20260906080039 55 0 0.0 3.0 0.02 0.07 0.02 91 1016.3
20260906075519 55 51 0.0 4.0 0.02 0.07 0.02 90 1016.3
20260906075017 56 0 0.0 4.0 0.02 0.07 0.02 90 1016.2
20260906074535 56 53 0.0 6.0 0.02 0.07 0.02 90 1016.2
20260906074016 56 360 2.0 6.0 0.02 0.07 0.02 89 1016.2
20260906073517 56 0 2.0 6.0 0.02 0.07 0.02 88 1016.3
20260906073049 57 0 1.0 6.0 0.02 0.07 0.02 87 1016.3
20260906072518 57 0 0.0 11.0 0.01 0.06 0.01 86 1016.2
20260906072018 57 47 1.0 11.0 0.00 0.05 0.00 85 1016.1
20260906071537 57 75 3.0 9.0 0.00 0.05 0.00 84 1015.9
20260906071019 57 51 3.0 10.0 0.00 0.05 0.00 83 1016.1
20260906070518 57 45 2.0 10.0 0.00 0.05 0.00 83 1016.2
20260906070040 57 49 2.0 8.0 0.00 0.05 0.00 83 1016.3
20260906065519 57 40 1.0 8.0 0.00 0.05 0.00 83 1016.3
20260906065019 57 0 1.0 8.0 0.00 0.05 0.00 83 1016.3
20260906064536 57 58 1.0 7.0 0.00 0.05 0.00 83 1016.2
20260906064016 57 0 2.0 8.0 0.00 0.05 0.00 83 1016.1
20260906063520 57 100 1.0 10.0 0.00 0.05 0.00 83 1016.1
20260906063039 57 132 2.0 12.0 0.00 0.05 0.00 83 1016.0
20260906062517 57 59 3.0 12.0 0.00 0.05 0.00 83 1016.0
20260906062021 57 96 3.0 12.0 0.00 0.05 0.00 84 1016.0
20260906061535 57 79 2.0 9.0 0.00 0.05 0.00 84 1016.0
20260906061019 57 49 2.0 9.0 0.00 0.05 0.00 83 1015.9
20260906060519 57 60 2.0 7.0 0.00 0.05 0.00 83 1016.0
20260906060037 57 78 1.0 9.0 0.00 0.05 0.00 83 1016.1
20260906055520 57 0 2.0 9.0 0.00 0.05 0.00 83 1016.2
20260906055018 57 52 2.0 9.0 0.00 0.05 0.00 82 1016.1
20260906054534 57 0 2.0 8.0 0.00 0.05 0.00 82 1016.1
20260906054017 57 0 2.0 11.0 0.00 0.05 0.00 82 1016.1
20260906053517 57 40 2.0 11.0 0.00 0.05 0.00 82 1016.1
20260906053038 57 0 3.0 14.0 0.00 0.05 0.00 82 1016.1
20260906052517 57 96 4.0 14.0 0.00 0.05 0.00 82 1016.2
20260906052018 57 86 6.0 14.0 0.00 0.05 0.00 82 1016.1
20260906051535 57 78 4.0 10.0 0.00 0.05 0.00 82 1016.1
20260906051019 57 78 3.0 10.0 0.00 0.05 0.00 82 1016.2
20260906050517 57 38 3.0 12.0 0.00 0.05 0.00 82 1016.2
20260906050040 57 51 3.0 12.0 0.00 0.05 0.00 82 1016.2
20260906045519 58 61 4.0 12.0 0.00 0.05 0.00 82 1016.3
20260906045016 58 44 3.0 12.0 0.00 0.05 0.00 82 1016.2
20260906044536 58 46 2.0 12.0 0.00 0.05 0.00 82 1016.3
20260906044017 58 61 2.0 13.0 0.00 0.05 0.00 82 1016.2
20260906043516 58 0 2.0 13.0 0.00 0.05 0.00 81 1016.0
20260906043044 58 74 3.0 13.0 0.00 0.05 0.00 81 1016.0
20260906042521 58 84 3.0 13.0 0.00 0.05 0.00 81 1016.0
20260906042020 58 61 4.0 13.0 0.00 0.05 0.00 80 1016.1
20260906041535 59 32 2.0 12.0 0.00 0.05 0.00 80 1016.1
20260906041020 59 65 4.0 14.0 0.00 0.05 0.00 80 1016.1
20260906040519 59 0 4.0 16.0 0.00 0.05 0.00 79 1016.1
20260906040045 59 90 5.0 16.0 0.00 0.05 0.00 79 1016.1
20260906035516 59 360 5.0 11.0 0.00 0.05 0.05 79 1016.1
20260906035019 59 360 2.0 17.0 0.00 0.05 0.05 79 1016.0
20260906034536 59 67 5.0 17.0 0.00 0.05 0.05 78 1016.0
20260906034017 60 92 4.0 17.0 0.00 0.05 0.05 79 1015.9
20260906033517 60 0 2.0 16.0 0.00 0.05 0.05 78 1016.0
20260906033034 60 67 7.0 16.0 0.00 0.05 0.05 78 1015.9
20260906032520 60 63 6.0 15.0 0.00 0.05 0.05 78 1015.9
20260906032019 60 46 4.0 16.0 0.00 0.05 0.05 78 1015.9
20260906031533 60 360 8.0 16.0 0.00 0.05 0.05 78 1015.9
20260906031019 60 35 5.0 14.0 0.00 0.05 0.05 79 1015.9
20260906030518 60 74 5.0 12.0 0.00 0.05 0.05 79 1015.9
20260906030040 60 360 4.0 12.0 0.00 0.05 0.05 79 1015.9
20260906025521 60 0 3.0 12.0 0.00 0.05 0.05 79 1015.9
20260906025021 60 0 3.0 12.0 0.00 0.05 0.05 79 1015.9
20260906024539 60 63 3.0 12.0 0.00 0.05 0.05 79 1015.9
20260906024017 60 40 2.0 12.0 0.00 0.05 0.05 79 1015.9
20260906023521 60 43 3.0 12.0 0.00 0.05 0.05 79 1015.8
20260906023049 61 92 3.0 15.0 0.00 0.05 0.05 79 1015.8
20260906022518 61 360 3.0 15.0 0.00 0.05 0.05 79 1015.7
20260906022020 61 360 4.0 13.0 0.00 0.05 0.05 79 1015.7
20260906021536 61 360 3.0 13.0 0.00 0.05 0.05 79 1015.7
20260906021017 61 360 4.0 13.0 0.00 0.05 0.05 79 1015.7
20260906020517 61 360 3.0 13.0 0.00 0.05 0.05 79 1015.6
20260906020039 62 360 4.0 13.0 0.00 0.05 0.05 79 1015.6
20260906015519 62 360 2.0 12.0 0.00 0.05 0.05 79 1015.6
20260906015019 62 360 2.0 10.0 0.00 0.05 0.05 79 1015.6
20260906014549 62 360 3.0 13.0 0.00 0.05 0.05 79 1015.6
20260906014019 62 360 4.0 13.0 0.00 0.05 0.05 79 1015.6
20260906013517 62 360 3.0 9.0 0.00 0.05 0.05 80 1015.7
20260906013040 62 0 1.0 9.0 0.00 0.05 0.05 80 1015.8
20260906012522 63 360 2.0 9.0 0.00 0.05 0.05 80 1015.7
20260906012018 63 360 2.0 9.0 0.00 0.05 0.05 80 1015.7
20260906011550 63 0 2.0 12.0 0.00 0.05 0.05 80 1015.7
20260906011020 63 360 3.0 12.0 0.00 0.05 0.05 80 1015.7
20260906010517 62 0 1.0 12.0 0.00 0.05 0.05 80 1015.7
20260906010039 62 360 4.0 11.0 0.00 0.05 0.05 81 1015.7
20260906005520 62 360 2.0 10.0 0.00 0.05 0.05 81 1015.7
20260906005021 62 360 3.0 10.0 0.00 0.05 0.05 81 1015.6
20260906004540 63 360 1.0 10.0 0.00 0.05 0.05 81 1015.7
20260906004026 63 360 2.0 10.0 0.00 0.05 0.05 81 1015.6
20260906003520 63 360 4.0 10.0 0.00 0.05 0.05 80 1015.6
20260906003034 63 360 2.0 12.0 0.00 0.05 0.05 80 1015.4
20260906002517 63 360 4.0 12.0 0.00 0.05 0.05 80 1015.4
20260906002018 63 0 4.0 9.0 0.00 0.05 0.05 80 1015.4
20260906001536 63 360 2.0 11.0 0.00 0.05 0.05 80 1015.3
20260906001020 63 0 4.0 11.0 0.00 0.05 0.05 80 1015.2
20260906000520 63 360 2.0 9.0 0.00 0.05 0.05 80 1015.1
20260906000038 63 0 3.0 9.0 0.00 0.05 0.05 80 1015.2
20260905235519 63 360 2.0 6.0 0.00 0.05 0.05 80 1015.2
20260905235018 63 360 1.0 8.0 0.00 0.05 0.05 80 1015.2
20260905234547 63 360 1.0 8.0 0.00 0.05 0.05 79 1015.2
20260905234017 63 360 1.0 6.0 0.00 0.05 0.05 79 1015.2
20260905233518 64 0 1.0 6.0 0.00 0.05 0.05 78 1015.1
20260905233040 64 360 1.0 6.0 0.00 0.05 0.05 78 1015.0
20260905232518 64 0 2.0 6.0 0.00 0.05 0.05 78 1015.0
20260905232020 64 360 0.0 8.0 0.00 0.05 0.05 78 1014.9
20260905231537 64 360 3.0 9.0 0.00 0.05 0.05 77 1014.9
20260905231017 65 360 2.0 9.0 0.00 0.05 0.05 77 1014.9
20260905230517 65 360 3.0 9.0 0.00 0.05 0.05 77 1014.9
20260905230042 65 360 1.0 10.0 0.00 0.05 0.05 76 1014.8
20260905225519 65 360 0.0 10.0 0.00 0.05 0.05 76 1014.8
20260905225018 65 360 2.0 10.0 0.00 0.05 0.05 77 1014.9
20260905224539 65 360 2.0 9.0 0.00 0.05 0.05 77 1014.8
20260905224017 65 0 2.0 6.0 0.00 0.05 0.05 77 1014.8
20260905223519 65 0 2.0 5.0 0.00 0.05 0.05 78 1014.7
20260905223038 66 360 0.0 5.0 0.00 0.05 0.05 78 1014.7
20260905222521 66 360 2.0 10.0 0.00 0.05 0.05 77 1014.7
20260905222019 66 0 2.0 10.0 0.00 0.05 0.05 76 1014.6
20260905221541 66 0 1.0 10.0 0.00 0.05 0.05 76 1014.5
20260905221019 66 360 3.0 10.0 0.00 0.05 0.05 75 1014.5
20260905220520 66 0 0.0 8.0 0.00 0.05 0.05 76 1014.5
20260905220037 66 0 2.0 8.0 0.00 0.05 0.05 75 1014.4
20260905215518 66 360 1.0 6.0 0.00 0.05 0.05 76 1014.4
20260905215019 66 360 2.0 8.0 0.00 0.05 0.05 75 1014.3
20260905214538 67 0 2.0 10.0 0.00 0.05 0.05 75 1014.2
20260905214020 67 0 0.0 10.0 0.00 0.05 0.05 76 1014.2
20260905213523 67 0 3.0 9.0 0.00 0.05 0.05 74 1014.1
20260905213035 67 360 1.0 9.0 0.00 0.05 0.05 75 1014.1
20260905212521 67 0 2.0 11.0 0.00 0.05 0.05 74 1014.0
20260905212019 67 360 2.0 13.0 0.00 0.05 0.05 74 1014.0
20260905211537 67 360 6.0 13.0 0.00 0.05 0.05 73 1013.9
20260905211023 67 360 3.0 11.0 0.00 0.05 0.05 74 1013.8
20260905210520 67 360 4.0 11.0 0.00 0.05 0.05 74 1013.8
20260905210037 67 360 3.0 11.0 0.00 0.05 0.05 74 1013.8
20260905205521 67 360 4.0 11.0 0.00 0.05 0.05 74 1013.7
20260905205021 67 360 4.0 11.0 0.00 0.05 0.05 73 1013.7
20260905204538 67 360 5.0 11.0 0.00 0.05 0.05 73 1013.7
20260905204023 67 360 4.0 10.0 0.00 0.05 0.05 73 1013.8
20260905203519 67 360 1.0 10.0 0.00 0.05 0.05 73 1013.8
20260905203036 67 360 4.0 12.0 0.00 0.05 0.05 73 1013.7
20260905202519 67 360 4.0 15.0 0.00 0.05 0.05 73 1013.7
20260905202019 67 360 6.0 15.0 0.00 0.05 0.05 73 1013.7
20260905201537 68 100 4.0 17.0 0.00 0.05 0.05 74 1013.6
20260905201019 68 0 6.0 17.0 0.00 0.05 0.05 73 1013.6
20260905200521 68 0 5.0 13.0 0.00 0.05 0.05 73 1013.5
20260905200045 68 78 4.0 12.0 0.00 0.05 0.05 74 1013.5
20260905195520 67 360 3.0 16.0 0.00 0.05 0.05 74 1013.5
20260905195018 67 360 5.0 16.0 0.00 0.05 0.05 74 1013.6
20260905194536 67 360 7.0 16.0 0.00 0.05 0.05 74 1013.5
20260905194020 67 0 5.0 11.0 0.00 0.05 0.05 77 1013.5
20260905193521 67 360 2.0 11.0 0.00 0.05 0.05 78 1013.6
20260905193035 67 360 5.0 11.0 0.00 0.05 0.05 79 1013.6
20260905192521 67 360 3.0 10.0 0.00 0.05 0.05 80 1013.6
20260905192023 66 360 2.0 12.0 0.00 0.05 0.05 80 1013.6
20260905191538 66 360 3.0 12.0 0.00 0.05 0.05 81 1013.5
20260905191017 66 360 3.0 9.0 0.00 0.05 0.05 81 1013.6
20260905190518 66 360 3.0 11.0 0.00 0.05 0.05 85 1013.6
20260905190048 65 360 2.0 11.0 0.00 0.05 0.05 83 1013.6
20260905185517 65 360 4.0 14.0 0.00 0.05 0.05 83 1013.5
20260905185016 65 0 5.0 14.0 0.00 0.05 0.05 84 1013.5
20260905184553 65 360 2.0 11.0 0.00 0.05 0.05 86 1013.4
20260905184019 65 360 3.0 10.0 0.00 0.05 0.05 86 1013.5
20260905183522 64 360 3.0 11.0 0.00 0.05 0.05 86 1013.4
20260905183045 64 0 2.0 12.0 0.01 0.05 0.05 87 1013.5
20260905182518 64 360 4.0 14.0 0.04 0.05 0.05 86 1013.5
20260905182018 65 360 6.0 14.0 0.04 0.05 0.05 87 1013.5
20260905181537 65 0 1.0 12.0 0.04 0.05 0.05 89 1013.5
20260905181018 65 360 4.0 12.0 0.04 0.05 0.05 88 1013.5
20260905180517 65 360 2.0 10.0 0.05 0.05 0.05 90 1013.4
20260905180035 64 360 2.0 11.0 0.05 0.05 0.05 90 1013.4
20260905175522 64 360 4.0 11.0 0.05 0.05 0.05 92 1013.5
20260905175017 64 360 4.0 9.0 0.05 0.05 0.05 91 1013.4
20260905174535 63 360 1.0 12.0 0.05 0.05 0.05 92 1013.4
20260905174020 63 0 0.0 13.0 0.05 0.05 0.05 91 1013.5
20260905173519 64 360 4.0 13.0 0.05 0.05 0.05 90 1013.5
20260905173038 64 360 6.0 13.0 0.04 0.04 0.04 89 1013.4
20260905172519 64 360 2.0 10.0 0.01 0.01 0.01 90 1013.3
20260905172020 63 360 1.0 10.0 0.01 0.01 0.01 91 1013.4
20260905171536 63 360 3.0 13.0 0.01 0.01 0.01 90 1013.5
20260905171019 63 360 5.0 15.0 0.01 0.01 0.01 89 1013.5
20260905170518 64 360 6.0 15.0 0.00 0.00 0.00 87 1013.4
20260905170035 64 360 5.0 13.0 0.00 0.00 0.00 85 1013.5
20260905165517 65 360 2.0 17.0 0.00 0.00 0.00 84 1013.4
20260905165016 66 360 6.0 17.0 0.00 0.00 0.00 82 1013.3
20260905164539 67 360 8.0 17.0 0.00 0.00 0.00 78 1013.3
20260905164020 68 360 5.0 13.0 0.00 0.00 0.00 76 1013.2
20260905163519 68 0 6.0 13.0 0.00 0.00 0.00 77 1013.3
20260905163038 68 360 7.0 12.0 0.00 0.00 0.00 77 1013.3
20260905162521 67 360 3.0 11.0 0.00 0.00 0.00 79 1013.4
20260905162019 67 360 5.0 10.0 0.00 0.00 0.00 77 1013.5
20260905161537 67 360 1.0 9.0 0.00 0.00 0.00 79 1013.6
20260905161016 66 0 3.0 14.0 0.00 0.00 0.00 79 1013.6
20260905160518 66 360 5.0 14.0 0.00 0.00 0.00 80 1013.5
20260905160035 66 360 7.0 14.0 0.00 0.00 0.00 81 1013.5
20260905155518 65 360 3.0 12.0 0.00 0.00 0.00 82 1013.5
20260905155017 65 360 7.0 12.0 0.00 0.00 0.00 82 1013.6
20260905154539 65 43 5.0 11.0 0.00 0.00 0.00 82 1013.7
20260905154022 65 360 5.0 12.0 0.00 0.00 0.00 83 1013.6
20260905153520 65 350 6.0 12.0 0.00 0.00 0.00 82 1013.6
20260905153050 65 360 0.0 10.0 0.00 0.00 0.00 85 1013.6
20260905152520 64 38 3.0 10.0 0.00 0.00 0.00 85 1013.6
20260905152019 64 22 3.0 10.0 0.00 0.00 0.00 87 1013.5
20260905151540 63 31 4.0 10.0 0.00 0.00 0.00 88 1013.5
20260905151016 63 34 5.0 11.0 0.00 0.00 0.00 89 1013.5
20260905150519 62 13 2.0 11.0 0.00 0.00 0.00 90 1013.5
20260905150039 62 5 2.0 10.0 0.00 0.00 0.00 90 1013.6
20260905145518 62 0 2.0 10.0 0.00 0.00 0.00 90 1013.6
20260905145018 62 0 1.0 9.0 0.00 0.00 0.00 90 1013.6
20260905144538 62 42 1.0 11.0 0.00 0.00 0.00 89 1013.5
20260905144018 62 0 1.0 11.0 0.00 0.00 0.00 90 1013.5
20260905143520 62 40 3.0 10.0 0.00 0.00 0.00 90 1013.4
20260905143039 62 13 3.0 11.0 0.00 0.00 0.00 91 1013.4
20260905142518 62 39 2.0 12.0 0.00 0.00 0.00 90 1013.4
20260905142018 62 15 4.0 12.0 0.00 0.00 0.00 89 1013.4
20260905141537 62 0 3.0 15.0 0.00 0.00 0.00 88 1013.2
20260905141019 63 42 5.0 15.0 0.00 0.00 0.00 86 1013.2
20260905140518 63 28 5.0 16.0 0.00 0.00 0.00 85 1013.0
20260905140035 64 33 9.0 16.0 0.00 0.00 0.00 83 1013.0
20260905135517 64 61 3.0 15.0 0.00 0.00 0.00 83 1012.9
20260905135019 64 46 3.0 15.0 0.00 0.00 0.00 84 1012.8
20260905134536 64 15 9.0 15.0 0.00 0.00 0.00 83 1012.7
20260905134019 64 90 2.0 10.0 0.00 0.00 0.00 84 1012.7
20260905133520 64 57 2.0 10.0 0.00 0.00 0.00 85 1012.7
20260905133035 64 54 2.0 12.0 0.00 0.00 0.00 85 1012.5
20260905132520 64 0 2.0 12.0 0.00 0.00 0.00 85 1012.5
20260905132020 64 45 4.0 12.0 0.00 0.00 0.00 85 1012.5
20260905131551 63 18 2.0 8.0 0.00 0.00 0.00 86 1012.5
20260905131019 63 47 3.0 6.0 0.00 0.00 0.00 86 1012.5
20260905130516 63 59 2.0 6.0 0.00 0.00 0.00 86 1012.4
20260905130042 63 55 2.0 8.0 0.00 0.00 0.00 86 1012.4
20260905125522 63 26 2.0 10.0 0.00 0.00 0.00 86 1012.3
20260905125020 63 33 3.0 12.0 0.00 0.00 0.00 86 1012.4
20260905124539 63 47 4.0 12.0 0.00 0.00 0.00 85 1012.3
20260905124020 63 40 3.0 12.0 0.00 0.00 0.00 86 1012.3
20260905123519 63 11 2.0 12.0 0.00 0.00 0.00 86 1012.2
20260905123036 63 17 4.0 12.0 0.00 0.00 0.00 87 1012.1
20260905122520 62 46 1.0 9.0 0.00 0.00 0.00 87 1012.1
20260905122017 62 0 1.0 9.0 0.00 0.00 0.00 87 1012.1
20260905121539 62 19 2.0 10.0 0.00 0.00 0.00 87 1012.0
20260905121018 62 0 2.0 10.0 0.00 0.00 0.00 87 1012.1
20260905120525 62 39 3.0 10.0 0.00 0.00 0.00 87 1012.1
20260905120040 62 352 3.0 10.0 0.00 0.00 0.00 88 1012.1
20260905115517 62 44 3.0 10.0 0.00 0.00 0.00 88 1012.1
20260905115024 61 72 4.0 10.0 0.00 0.00 0.00 88 1012.0
20260905114535 61 42 3.0 10.0 0.00 0.00 0.00 88 1012.1
20260905114017 61 28 4.0 11.0 0.00 0.00 0.00 89 1012.1
20260905113519 61 35 1.0 11.0 0.00 0.00 0.00 89 1012.0
20260905113036 61 33 5.0 11.0 0.00 0.00 0.00 89 1012.0
20260905112518 61 30 3.0 9.0 0.00 0.00 0.00 89 1011.9
20260905112019 61 30 3.0 9.0 0.00 0.00 0.00 88 1011.9
20260905111557 61 68 3.0 14.0 0.00 0.00 0.00 88 1011.8
20260905111019 61 46 3.0 14.0 0.00 0.00 0.00 88 1011.7
20260905110518 61 57 3.0 14.0 0.00 0.00 0.00 88 1011.8
20260905110036 61 43 2.0 8.0 0.00 0.00 0.00 88 1011.7
20260905105520 61 59 2.0 10.0 0.00 0.00 0.00 87 1011.7
20260905105020 61 44 3.0 10.0 0.00 0.00 0.00 87 1011.7
20260905104536 61 42 3.0 9.0 0.00 0.00 0.00 86 1011.6
20260905104017 61 34 3.0 8.0 0.00 0.00 0.00 86 1011.6
20260905103519 61 24 1.0 8.0 0.00 0.00 0.00 86 1011.6
20260905103036 61 38 1.0 9.0 0.00 0.00 0.00 86 1011.5
20260905102516 61 46 3.0 9.0 0.00 0.00 0.00 86 1011.4
20260905102016 61 38 2.0 7.0 0.00 0.00 0.00 87 1011.4
20260905101544 61 17 1.0 7.0 0.00 0.00 0.00 87 1011.4
20260905101017 61 352 2.0 6.0 0.00 0.00 0.00 87 1011.4
20260905100519 61 22 2.0 8.0 0.00 0.00 0.00 87 1011.3
20260905100039 61 0 2.0 10.0 0.00 0.00 0.00 87 1011.2
20260905095520 61 349 3.0 10.0 0.00 0.00 0.00 87 1011.1
20260905095019 61 350 5.0 9.0 0.00 0.00 0.00 88 1011.0
20260905094537 60 9 3.0 8.0 0.00 0.00 0.00 88 1011.0
20260905094020 60 352 3.0 9.0 0.00 0.00 0.00 88 1011.0
20260905093518 60 352 3.0 9.0 0.00 0.00 0.00 87 1011.0
20260905093040 60 333 3.0 9.0 0.00 0.00 0.00 87 1011.0
20260905092518 60 346 2.0 6.0 0.00 0.00 0.00 87 1011.0
20260905092016 61 331 1.0 9.0 0.00 0.00 0.00 86 1010.8
20260905091538 61 331 3.0 9.0 0.00 0.00 0.00 86 1010.8
20260905091018 61 340 3.0 8.0 0.00 0.00 0.00 86 1010.8
20260905090522 61 334 3.0 9.0 0.00 0.00 0.00 86 1010.8
20260905090035 61 352 3.0 9.0 0.00 0.00 0.00 86 1010.8